| time (UTC) | temp F | wind direction | speed knots | gust knots | rain 1hr in | rain 24hr in | rain mn in | humidity % | barometer mb |
| 20260506134257 | 50 | 0 | 0.0 | 0.0 | 0.00 | 0.01 | 0.00 | 1020.4 | |
| 20260506133757 | 50 | 0 | 0.0 | 0.0 | 0.00 | 0.01 | 0.00 | 1020.3 | |
| 20260506133257 | 50 | 0 | 0.0 | 0.0 | 0.00 | 0.01 | 0.00 | 1020.3 | |
| 20260506132758 | 50 | 0 | 0.0 | 0.0 | 0.00 | 0.01 | 0.00 | 1020.3 | |
| 20260506131758 | 50 | 0 | 0.0 | 0.0 | 0.00 | 0.01 | 0.00 | 1020.1 | |
| 20260506131257 | 50 | 0 | 0.0 | 0.0 | 0.00 | 0.01 | 0.00 | 1020.1 | |
| 20260506130757 | 49 | 0 | 0.0 | 0.0 | 0.00 | 0.01 | 0.00 | 1020.1 | |
| 20260506130257 | 50 | 0 | 0.0 | 0.0 | 0.00 | 0.01 | 0.00 | 1020.1 | |
| 20260506125757 | 50 | 0 | 0.0 | 0.0 | 0.00 | 0.01 | 0.00 | 1020.0 | |
| 20260506125257 | 50 | 0 | 0.0 | 0.0 | 0.00 | 0.01 | 0.00 | 1019.9 | |
| 20260506124757 | 50 | 0 | 0.0 | 0.0 | 0.00 | 0.01 | 0.00 | 1020.0 | |
| 20260506124257 | 50 | 0 | 0.0 | 0.0 | 0.00 | 0.01 | 0.00 | 1020.0 | |
| 20260506123256 | 50 | 0 | 0.0 | 0.0 | 0.00 | 0.01 | 0.00 | 1019.9 | |
| 20260506121257 | 49 | 0 | 0.0 | 5.2 | 0.00 | 0.01 | 0.00 | 1020.0 | |
| 20260506120256 | 50 | 0 | 0.0 | 2.6 | 0.00 | 0.01 | 0.00 | 1020.1 | |
| 20260506115757 | 49 | 0 | 0.0 | 2.6 | 0.00 | 0.01 | 0.00 | 1020.0 | |
| 20260506115257 | 50 | 219 | 0.9 | 2.6 | 0.00 | 0.01 | 0.00 | 1020.0 | |
| 20260506114756 | 50 | 0 | 0.0 | 0.0 | 0.00 | 0.01 | 0.00 | 1019.8 | |
| 20260506113759 | 50 | 0 | 0.0 | 4.3 | 0.00 | 0.01 | 0.00 | 1019.8 | |
| 20260506113257 | 50 | 226 | 0.9 | 4.3 | 0.00 | 0.01 | 0.00 | 1019.8 | |
| 20260506112257 | 50 | 0 | 0.0 | 0.0 | 0.00 | 0.01 | 0.00 | 1019.7 | |
| 20260506111756 | 50 | 0 | 0.0 | 0.0 | 0.00 | 0.01 | 0.00 | 1019.7 | |
| 20260506111256 | 50 | 0 | 0.0 | 5.2 | 0.00 | 0.01 | 0.00 | 1019.7 | |
| 20260506110802 | 50 | 204 | 0.0 | 5.2 | 0.00 | 0.01 | 0.00 | 1019.7 | |
| 20260506110756 | 50 | 204 | 0.0 | 5.2 | 0.00 | 0.01 | 0.00 | 1019.7 | |
| 20260506110256 | 50 | 218 | 0.9 | 5.2 | 0.00 | 0.01 | 0.00 | 1019.7 | |
| 20260506105756 | 50 | 245 | 2.6 | 5.2 | 0.00 | 0.01 | 0.00 | 1019.7 | |
| 20260506105257 | 50 | 260 | 0.0 | 4.3 | 0.00 | 0.01 | 0.00 | 1019.6 | |
| 20260506104757 | 50 | 270 | 0.9 | 4.3 | 0.00 | 0.01 | 0.00 | 1019.6 | |
| 20260506104256 | 50 | 250 | 2.6 | 4.3 | 0.00 | 0.01 | 0.00 | 1019.5 | |
| 20260506103758 | 50 | 240 | 0.9 | 2.6 | 0.00 | 0.01 | 0.00 | 1019.2 | |
| 20260506103756 | 50 | 240 | 0.9 | 2.6 | 0.00 | 0.01 | 0.00 | 1019.2 | |
| 20260506103256 | 50 | 0 | 0.0 | 2.6 | 0.00 | 0.01 | 0.00 | 1019.2 | |
| 20260506102756 | 50 | 0 | 0.0 | 2.6 | 0.00 | 0.01 | 0.00 | 1019.1 | |
| 20260506102300 | 50 | 229 | 0.0 | 2.6 | 0.00 | 0.01 | 0.00 | 1019.1 | |
| 20260506102258 | 50 | 229 | 0.0 | 2.6 | 0.00 | 0.01 | 0.00 | 1019.1 | |
| 20260506101756 | 50 | 0 | 0.0 | 2.6 | 0.00 | 0.01 | 0.00 | 1019.1 | |
| 20260506101639 | 50 | 0 | 0.0 | 2.6 | 0.00 | 0.01 | 0.00 | 1019.0 | |
| 20260506101256 | 50 | 0 | 0.0 | 2.6 | 0.00 | 0.01 | 0.00 | 1019.0 | |
| 20260506100758 | 50 | 236 | 0.0 | 2.6 | 0.00 | 0.02 | 0.00 | 1019.1 | |
| 20260506100756 | 50 | 236 | 0.0 | 2.6 | 0.00 | 0.02 | 0.00 | 1019.1 | |
| 20260506100256 | 50 | 285 | 0.0 | 4.3 | 0.00 | 0.02 | 0.00 | 1019.0 | |
| 20260506095756 | 50 | 301 | 0.0 | 4.3 | 0.00 | 0.02 | 0.00 | 1019.0 | |
| 20260506095259 | 50 | 261 | 0.0 | 4.3 | 0.00 | 0.02 | 0.00 | 1019.0 | |
| 20260506095257 | 50 | 261 | 0.0 | 4.3 | 0.00 | 0.02 | 0.00 | 1019.0 | |
| 20260506094756 | 50 | 232 | 0.0 | 4.3 | 0.00 | 0.02 | 0.00 | 1019.0 | |
| 20260506094256 | 50 | 238 | 0.0 | 4.3 | 0.00 | 0.02 | 0.00 | 1019.0 | |
| 20260506093757 | 50 | 219 | 2.6 | 4.3 | 0.00 | 0.02 | 0.00 | 1018.9 | |
| 20260506093256 | 50 | 205 | 0.0 | 4.3 | 0.00 | 0.02 | 0.00 | 1018.9 | |
| 20260506092756 | 50 | 252 | 0.0 | 4.3 | 0.00 | 0.02 | 0.00 | 1018.8 | |
| 20260506092257 | 50 | 0 | 0.0 | 4.3 | 0.00 | 0.02 | 0.00 | 1018.8 | |
| 20260506091756 | 50 | 260 | 0.0 | 4.3 | 0.00 | 0.02 | 0.00 | 1018.8 | |
| 20260506091256 | 50 | 274 | 0.0 | 5.2 | 0.00 | 0.02 | 0.00 | 1018.8 | |
| 20260506090756 | 50 | 289 | 0.0 | 5.2 | 0.00 | 0.02 | 0.00 | 1018.7 | |
| 20260506090256 | 50 | 264 | 3.5 | 5.2 | 0.00 | 0.02 | 0.00 | 1018.8 | |
| 20260506085757 | 50 | 280 | 0.0 | 5.2 | 0.00 | 0.02 | 0.00 | 1018.8 | |
| 20260506085306 | 50 | 266 | 1.7 | 5.2 | 0.00 | 0.02 | 0.00 | 1018.7 | |
| 20260506085256 | 50 | 266 | 1.7 | 5.2 | 0.00 | 0.02 | 0.00 | 1018.7 | |
| 20260506084256 | 50 | 0 | 0.0 | 0.0 | 0.00 | 0.02 | 0.00 | 1018.7 | |
| 20260506083756 | 50 | 197 | 0.0 | 6.1 | 0.00 | 0.02 | 0.00 | 1018.7 | |
| 20260506082756 | 50 | 228 | 2.6 | 6.1 | 0.00 | 0.02 | 0.00 | 1018.6 | |
| 20260506082256 | 50 | 0 | 0.0 | 3.5 | 0.00 | 0.02 | 0.00 | 1018.5 | |
| 20260506081256 | 50 | 243 | 2.6 | 3.5 | 0.00 | 0.02 | 0.00 | 1018.4 | |
| 20260506080756 | 50 | 263 | 0.0 | 3.5 | 0.00 | 0.03 | 0.00 | 1018.4 | |
| 20260506080256 | 50 | 260 | 0.0 | 4.3 | 0.00 | 0.03 | 0.00 | 1018.4 | |
| 20260506073256 | 51 | 0 | 0.0 | 0.0 | 0.00 | 0.03 | 0.00 | 1018.1 | |
| 20260506072756 | 51 | 0 | 0.0 | 0.0 | 0.00 | 0.03 | 0.00 | 1018.1 | |
| 20260506072256 | 51 | 0 | 0.0 | 0.0 | 0.00 | 0.03 | 0.00 | 1018.0 | |
| 20260506071755 | 51 | 0 | 0.0 | 0.0 | 0.00 | 0.03 | 0.00 | 1017.8 | |
| 20260506071255 | 51 | 0 | 0.0 | 0.0 | 0.00 | 0.03 | 0.00 | 1017.8 | |
| 20260506070756 | 51 | 0 | 0.0 | 0.0 | 0.00 | 0.03 | 0.00 | 1017.8 | |
| 20260506070255 | 51 | 0 | 0.0 | 0.0 | 0.00 | 0.03 | 0.03 | 1017.7 | |
| 20260506062257 | 51 | 0 | 0.0 | 0.0 | 0.00 | 0.03 | 0.03 | 1017.7 | |
| 20260506061755 | 51 | 0 | 0.0 | 0.0 | 0.00 | 0.03 | 0.03 | 1017.7 | |
| 20260506061255 | 51 | 0 | 0.0 | 0.0 | 0.00 | 0.03 | 0.03 | 1017.7 | |
| 20260506060755 | 51 | 0 | 0.0 | 0.0 | 0.00 | 0.03 | 0.03 | 1017.7 | |
| 20260506060255 | 51 | 0 | 0.0 | 0.0 | 0.00 | 0.03 | 0.03 | 1017.7 | |
| 20260506051255 | 52 | 0 | 0.0 | 0.0 | 0.00 | 0.03 | 0.03 | 1017.5 | |
| 20260506050755 | 51 | 0 | 0.0 | 0.0 | 0.00 | 0.03 | 0.03 | 1017.5 | |
| 20260506050255 | 51 | 0 | 0.0 | 0.0 | 0.00 | 0.03 | 0.03 | 1017.5 | |
| 20260506044756 | 51 | 0 | 0.0 | 1.7 | 0.00 | 0.03 | 0.03 | 1017.3 | |
| 20260506044255 | 51 | 0 | 0.0 | 1.7 | 0.00 | 0.03 | 0.03 | 1017.3 | |
| 20260506043755 | 51 | 25 | 0.0 | 1.7 | 0.00 | 0.03 | 0.03 | 1017.3 | |
| 20260506043256 | 51 | 0 | 0.0 | 0.0 | 0.00 | 0.03 | 0.03 | 1017.2 | |
| 20260506042755 | 51 | 0 | 0.0 | 1.7 | 0.00 | 0.03 | 0.03 | 1017.2 | |
| 20260506042256 | 51 | 25 | 0.0 | 1.7 | 0.00 | 0.03 | 0.03 | 1017.1 | |
| 20260506041755 | 51 | 82 | 0.0 | 1.7 | 0.00 | 0.03 | 0.03 | 1017.1 | |
| 20260506041255 | 51 | 0 | 0.0 | 0.0 | 0.00 | 0.03 | 0.03 | 1017.0 | |
| 20260506040756 | 51 | 0 | 0.0 | 0.0 | 0.00 | 0.03 | 0.03 | 1016.9 | |
| 20260506040255 | 51 | 0 | 0.0 | 0.0 | 0.00 | 0.03 | 0.03 | 1016.8 | |
| 20260506035755 | 51 | 0 | 0.0 | 2.6 | 0.00 | 0.03 | 0.03 | 1016.9 | |
| 20260506035257 | 51 | 82 | 0.0 | 2.6 | 0.00 | 0.03 | 0.03 | 1016.8 | |
| 20260506035255 | 51 | 82 | 0.0 | 2.6 | 0.00 | 0.03 | 0.03 | 1016.8 | |
| 20260506034755 | 51 | 357 | 0.0 | 2.6 | 0.00 | 0.03 | 0.03 | 1016.7 | |
| 20260506034255 | 51 | 36 | 0.0 | 1.7 | 0.00 | 0.03 | 0.03 | 1016.7 | |
| 20260506033755 | 51 | 0 | 0.0 | 1.7 | 0.00 | 0.03 | 0.03 | 1016.6 | |
| 20260506032755 | 52 | 0 | 0.0 | 0.9 | 0.00 | 0.03 | 0.03 | 1016.6 | |
| 20260506032255 | 51 | 357 | 0.0 | 3.5 | 0.00 | 0.03 | 0.03 | 1016.4 | |
| 20260506031755 | 51 | 357 | 0.0 | 3.5 | 0.00 | 0.03 | 0.03 | 1016.4 | |
| 20260506031255 | 51 | 357 | 0.0 | 3.5 | 0.00 | 0.03 | 0.03 | 1016.4 | |
| 20260506030826 | 51 | 333 | 0.0 | 2.6 | 0.00 | 0.03 | 0.03 | 1016.3 | |
| 20260506030755 | 51 | 333 | 0.0 | 2.6 | 0.00 | 0.03 | 0.03 | 1016.3 | |
| 20260506030255 | 51 | 336 | 0.0 | 5.2 | 0.00 | 0.03 | 0.03 | 1016.3 | |
| 20260506025755 | 51 | 336 | 0.9 | 5.2 | 0.00 | 0.03 | 0.03 | 1016.3 | |
| 20260506025255 | 51 | 14 | 0.0 | 5.2 | 0.00 | 0.03 | 0.03 | 1016.3 | |
| 20260506024754 | 52 | 299 | 0.0 | 1.7 | 0.00 | 0.03 | 0.03 | 1016.3 | |
| 20260506024254 | 52 | 313 | 0.0 | 4.3 | 0.00 | 0.03 | 0.03 | 1016.2 | |
| 20260506023754 | 52 | 305 | 0.0 | 4.3 | 0.00 | 0.03 | 0.03 | 1016.2 | |
| 20260506023254 | 52 | 323 | 0.0 | 4.3 | 0.00 | 0.03 | 0.03 | 1016.2 | |
| 20260506022754 | 52 | 301 | 0.0 | 3.5 | 0.00 | 0.03 | 0.03 | 1016.2 | |
| 20260506022255 | 52 | 261 | 0.0 | 3.5 | 0.00 | 0.03 | 0.03 | 1016.2 | |
| 20260506021754 | 52 | 261 | 0.0 | 3.5 | 0.00 | 0.03 | 0.03 | 1016.1 | |
| 20260506021254 | 52 | 201 | 0.0 | 3.5 | 0.00 | 0.03 | 0.03 | 1016.1 | |
| 20260506020754 | 52 | 348 | 0.0 | 3.5 | 0.00 | 0.03 | 0.03 | 1016.2 | |
| 20260506020254 | 52 | 280 | 0.0 | 6.1 | 0.00 | 0.03 | 0.03 | 1016.2 | |
| 20260506015255 | 52 | 285 | 3.5 | 6.1 | 0.00 | 0.03 | 0.03 | 1016.2 | |
| 20260506014754 | 52 | 275 | 0.0 | 5.2 | 0.00 | 0.03 | 0.03 | 1016.3 | |
| 20260506014254 | 52 | 291 | 1.7 | 5.2 | 0.00 | 0.03 | 0.03 | 1016.2 | |
| 20260506013754 | 53 | 334 | 0.0 | 2.6 | 0.00 | 0.03 | 0.03 | 1016.1 | |
| 20260506013254 | 53 | 285 | 0.9 | 2.6 | 0.00 | 0.03 | 0.03 | 1016.2 | |
| 20260506012754 | 53 | 0 | 0.0 | 1.7 | 0.00 | 0.03 | 0.03 | 1016.1 | |
| 20260506012255 | 53 | 322 | 0.0 | 1.7 | 0.00 | 0.03 | 0.03 | 1016.1 | |
| 20260506011754 | 53 | 322 | 0.0 | 1.7 | 0.00 | 0.03 | 0.03 | 1016.2 | |
| 20260506011255 | 53 | 275 | 0.0 | 5.2 | 0.00 | 0.03 | 0.03 | 1016.2 | |
| 20260506005754 | 53 | 299 | 0.0 | 4.3 | 0.00 | 0.03 | 0.03 | 1016.2 | |
| 20260506005255 | 53 | 281 | 0.0 | 4.3 | 0.00 | 0.03 | 0.03 | 1016.2 | |
| 20260506004754 | 53 | 266 | 0.0 | 3.5 | 0.00 | 0.03 | 0.03 | 1016.2 | |
| 20260506004254 | 54 | 299 | 0.9 | 3.5 | 0.00 | 0.03 | 0.03 | 1016.2 | |
| 20260506003254 | 54 | 292 | 0.0 | 5.2 | 0.00 | 0.03 | 0.03 | 1016.2 | |
| 20260506002754 | 54 | 278 | 0.0 | 5.2 | 0.00 | 0.03 | 0.03 | 1016.2 | |
| 20260506002255 | 54 | 282 | 1.7 | 5.2 | 0.00 | 0.03 | 0.03 | 1016.2 | |
| 20260506001754 | 54 | 254 | 0.0 | 7.0 | 0.00 | 0.03 | 0.03 | 1016.2 | |
| 20260506001254 | 53 | 256 | 1.7 | 7.0 | 0.00 | 0.03 | 0.03 | 1016.3 | |
| 20260506000255 | 53 | 256 | 1.7 | 5.2 | 0.00 | 0.03 | 0.03 | 1016.3 | |
| 20260505235754 | 53 | 301 | 0.0 | 6.1 | 0.00 | 0.03 | 0.03 | 1016.3 | |
| 20260505235255 | 54 | 280 | 0.0 | 6.1 | 0.00 | 0.03 | 0.03 | 1016.3 | |
| 20260505234754 | 54 | 299 | 0.0 | 6.1 | 0.00 | 0.03 | 0.03 | 1016.2 | |
| 20260505234254 | 54 | 243 | 0.9 | 4.3 | 0.00 | 0.03 | 0.03 | 1016.2 | |
| 20260505233754 | 54 | 309 | 0.9 | 4.3 | 0.00 | 0.03 | 0.03 | 1016.2 | |
| 20260505233254 | 54 | 231 | 2.6 | 4.3 | 0.00 | 0.03 | 0.03 | 1016.2 | |
| 20260505232754 | 54 | 273 | 0.0 | 4.3 | 0.00 | 0.03 | 0.03 | 1016.3 | |
| 20260505231754 | 53 | 266 | 0.0 | 6.1 | 0.00 | 0.03 | 0.03 | 1016.3 | |
| 20260505231254 | 53 | 270 | 2.6 | 6.1 | 0.00 | 0.03 | 0.03 | 1016.3 | |
| 20260505230754 | 54 | 270 | 0.0 | 5.2 | 0.00 | 0.03 | 0.03 | 1016.3 | |
| 20260505225754 | 54 | 284 | 0.0 | 8.7 | 0.00 | 0.03 | 0.03 | 1016.4 | |
| 20260505225254 | 54 | 264 | 4.3 | 8.7 | 0.00 | 0.03 | 0.03 | 1016.4 | |
| 20260505224754 | 54 | 270 | 0.0 | 7.8 | 0.00 | 0.03 | 0.03 | 1016.6 | |
| 20260505224254 | 55 | 250 | 0.0 | 7.8 | 0.00 | 0.03 | 0.03 | 1016.4 | |
| 20260505223754 | 55 | 252 | 0.0 | 7.8 | 0.00 | 0.03 | 0.03 | 1016.4 | |
| 20260505222754 | 56 | 228 | 1.7 | 7.8 | 0.00 | 0.03 | 0.03 | 1016.4 | |
| 20260505222254 | 55 | 208 | 0.0 | 7.8 | 0.00 | 0.03 | 0.03 | 1016.4 | |
| 20260505221754 | 55 | 232 | 1.7 | 7.8 | 0.00 | 0.03 | 0.03 | 1016.6 | |
| 20260505221254 | 55 | 236 | 3.5 | 7.8 | 0.00 | 0.03 | 0.03 | 1016.6 | |
| 20260505220754 | 55 | 233 | 2.6 | 7.8 | 0.00 | 0.03 | 0.03 | 1016.7 | |
| 20260505220254 | 55 | 259 | 0.9 | 7.8 | 0.00 | 0.03 | 0.03 | 1016.7 | |
| 20260505215753 | 55 | 201 | 2.6 | 7.8 | 0.00 | 0.03 | 0.03 | 1016.8 | |
| 20260505215254 | 55 | 231 | 5.2 | 7.8 | 0.00 | 0.03 | 0.03 | 1016.8 | |
| 20260505214753 | 55 | 229 | 1.7 | 6.1 | 0.00 | 0.03 | 0.03 | 1016.8 | |
| 20260505214253 | 55 | 226 | 3.5 | 7.8 | 0.00 | 0.03 | 0.03 | 1016.8 | |
| 20260505213753 | 54 | 226 | 3.5 | 7.8 | 0.00 | 0.03 | 0.03 | 1016.9 | |
| 20260505213253 | 55 | 243 | 4.3 | 7.8 | 0.00 | 0.03 | 0.03 | 1016.9 | |
| 20260505212254 | 55 | 236 | 4.3 | 7.0 | 0.00 | 0.03 | 0.03 | 1016.9 | |
| 20260505211753 | 55 | 236 | 2.6 | 7.0 | 0.00 | 0.03 | 0.03 | 1016.9 | |
| 20260505211253 | 54 | 245 | 2.6 | 5.2 | 0.00 | 0.03 | 0.03 | 1016.8 | |
| 20260505210753 | 54 | 253 | 3.5 | 7.8 | 0.00 | 0.03 | 0.03 | 1016.7 | |
| 20260505205753 | 54 | 242 | 3.5 | 7.8 | 0.00 | 0.03 | 0.03 | 1016.7 | |
| 20260505205254 | 53 | 236 | 5.2 | 7.8 | 0.00 | 0.03 | 0.03 | 1016.7 | |
| 20260505204753 | 53 | 357 | 3.5 | 7.8 | 0.00 | 0.03 | 0.03 | 1016.8 | |
| 20260505204253 | 53 | 0 | 0.0 | 0.0 | 0.00 | 0.03 | 0.03 | 1016.9 | |
| 20260505203753 | 54 | 0 | 0.0 | 0.0 | 0.00 | 0.03 | 0.03 | 1016.9 | |
| 20260505203253 | 55 | 0 | 0.0 | 0.0 | 0.00 | 0.03 | 0.03 | 1016.9 | |
| 20260505202756 | 55 | 0 | 0.0 | 0.9 | 0.00 | 0.03 | 0.03 | 1017.0 | |
| 20260505201753 | 55 | 0 | 0.0 | 0.9 | 0.00 | 0.03 | 0.03 | 1017.0 | |
| 20260505201253 | 54 | 144 | 0.0 | 0.9 | 0.00 | 0.03 | 0.03 | 1017.0 | |
| 20260505200753 | 54 | 254 | 4.3 | 7.8 | 0.00 | 0.03 | 0.03 | 1017.0 | |
| 20260505200253 | 55 | 228 | 2.6 | 7.8 | 0.00 | 0.03 | 0.03 | 1017.0 | |
| 20260505195753 | 55 | 210 | 2.6 | 7.8 | 0.00 | 0.03 | 0.03 | 1016.9 | |
| 20260505195254 | 55 | 224 | 0.0 | 7.0 | 0.00 | 0.03 | 0.03 | 1016.8 | |
| 20260505194253 | 55 | 191 | 3.5 | 7.0 | 0.00 | 0.03 | 0.03 | 1016.8 | |
| 20260505193755 | 55 | 189 | 2.6 | 6.1 | 0.00 | 0.03 | 0.03 | 1016.8 | |
| 20260505193753 | 55 | 189 | 2.6 | 6.1 | 0.00 | 0.03 | 0.03 | 1016.8 | |
| 20260505193253 | 55 | 180 | 2.6 | 6.1 | 0.00 | 0.03 | 0.03 | 1016.8 | |
| 20260505192753 | 55 | 180 | 1.7 | 6.1 | 0.00 | 0.03 | 0.03 | 1016.8 | |
| 20260505192255 | 54 | 151 | 2.6 | 7.0 | 0.00 | 0.03 | 0.03 | 1016.8 | |
| 20260505191753 | 54 | 166 | 0.9 | 7.0 | 0.00 | 0.03 | 0.03 | 1016.8 | |
| 20260505191254 | 54 | 180 | 3.5 | 7.0 | 0.00 | 0.03 | 0.03 | 1016.8 | |
| 20260505190253 | 53 | 208 | 1.7 | 6.1 | 0.00 | 0.03 | 0.03 | 1016.7 | |
| 20260505185753 | 53 | 193 | 3.5 | 6.1 | 0.00 | 0.03 | 0.03 | 1016.8 | |
| 20260505185254 | 53 | 179 | 4.3 | 6.1 | 0.00 | 0.03 | 0.03 | 1016.7 | |
| 20260505184753 | 53 | 210 | 0.9 | 6.1 | 0.00 | 0.03 | 0.03 | 1016.7 | |
| 20260505184253 | 53 | 215 | 3.5 | 6.1 | 0.00 | 0.03 | 0.03 | 1016.7 | |
| 20260505183753 | 53 | 222 | 3.5 | 6.1 | 0.00 | 0.03 | 0.03 | 1016.7 | |
| 20260505183253 | 53 | 210 | 2.6 | 4.3 | 0.00 | 0.03 | 0.03 | 1016.6 | |
| 20260505182753 | 53 | 210 | 0.0 | 7.0 | 0.00 | 0.03 | 0.03 | 1016.4 | |
| 20260505182253 | 53 | 219 | 2.6 | 7.0 | 0.00 | 0.03 | 0.03 | 1016.4 | |
| 20260505181753 | 53 | 182 | 5.2 | 7.0 | 0.00 | 0.03 | 0.03 | 1016.6 | |
| 20260505181253 | 53 | 211 | 0.0 | 1.7 | 0.00 | 0.03 | 0.03 | 1016.4 | |
| 20260505180753 | 53 | 151 | 0.0 | 1.7 | 0.00 | 0.03 | 0.03 | 1016.4 | |
| 20260505180253 | 54 | 0 | 0.0 | 3.5 | 0.00 | 0.03 | 0.03 | 1016.3 | |
| 20260505175753 | 53 | 0 | 0.0 | 3.5 | 0.00 | 0.03 | 0.03 | 1016.4 | |
| 20260505174753 | 53 | 0 | 0.0 | 1.7 | 0.00 | 0.03 | 0.03 | 1016.4 | |
| 20260505174253 | 53 | 180 | 0.0 | 1.7 | 0.00 | 0.03 | 0.03 | 1016.3 | |
| 20260505173753 | 53 | 0 | 0.0 | 0.0 | 0.00 | 0.03 | 0.03 | 1016.3 | |
| 20260505173253 | 52 | 0 | 0.0 | 0.0 | 0.00 | 0.03 | 0.03 | 1016.3 | |
| 20260505172753 | 52 | 0 | 0.0 | 0.0 | 0.00 | 0.03 | 0.03 | 1016.2 | |
| 20260505171753 | 52 | 180 | 0.0 | 2.6 | 0.00 | 0.03 | 0.03 | 1016.1 | |
| 20260505170253 | 52 | 0 | 0.0 | 0.0 | 0.00 | 0.03 | 0.03 | 1016.1 | |
| 20260505165752 | 52 | 0 | 0.0 | 0.0 | 0.00 | 0.03 | 0.03 | 1016.0 | |
| 20260505165253 | 52 | 162 | 0.0 | 5.2 | 0.00 | 0.03 | 0.03 | 1016.0 | |
| 20260505164752 | 51 | 201 | 0.0 | 5.2 | 0.00 | 0.03 | 0.03 | 1016.1 | |
| 20260505163752 | 51 | 151 | 0.0 | 4.3 | 0.00 | 0.03 | 0.03 | 1015.9 | |
| 20260505163252 | 52 | 135 | 0.0 | 3.5 | 0.00 | 0.03 | 0.03 | 1015.9 | |
| 20260505162752 | 52 | 0 | 0.0 | 0.0 | 0.00 | 0.03 | 0.03 | 1016.0 | |
| 20260505162253 | 52 | 0 | 0.0 | 0.0 | 0.00 | 0.03 | 0.03 | 1015.9 | |
| 20260505161752 | 52 | 0 | 0.0 | 0.0 | 0.00 | 0.03 | 0.03 | 1016.0 | |
| 20260505161252 | 52 | 0 | 0.0 | 0.0 | 0.00 | 0.03 | 0.03 | 1016.0 | |
| 20260505160752 | 51 | 0 | 0.0 | 0.0 | 0.01 | 0.03 | 0.03 | 1015.9 | |
| 20260505160253 | 51 | 0 | 0.0 | 0.0 | 0.01 | 0.03 | 0.03 | 1015.9 | |
| 20260505153253 | 51 | 0 | 0.0 | 0.0 | 0.01 | 0.03 | 0.03 | 1015.8 | |
| 20260505152754 | 51 | 0 | 0.0 | 0.0 | 0.01 | 0.03 | 0.03 | 1015.8 | |
| 20260505152254 | 51 | 0 | 0.0 | 0.0 | 0.01 | 0.03 | 0.03 | 1015.9 | |
| 20260505151753 | 51 | 0 | 0.0 | 0.0 | 0.01 | 0.03 | 0.03 | 1015.8 | |
| 20260505150752 | 51 | 0 | 0.0 | 0.0 | 0.00 | 0.04 | 0.02 | 1015.7 | |
| 20260505150252 | 51 | 0 | 0.0 | 0.0 | 0.00 | 0.04 | 0.02 | 1015.8 | |
| 20260505140253 | 50 | 0 | 0.0 | 4.3 | 0.00 | 0.04 | 0.02 | 1015.3 |